TimeEDT,TemperatureF,Dew PointF,Humidity,Sea Level PressureIn,VisibilityMPH,Wind Direction,Wind SpeedMPH,Gust SpeedMPH,PrecipitationIn,Events,Conditions,WindDirDegrees,DateUTC
12:51 AM,70.0,66.9,90,29.88,10.0,Calm,Calm,-,N/A,,Partly Cloudy,0,2013-08-28 04:51:00
1:51 AM,70.0,66.9,90,29.87,10.0,Calm,Calm,-,N/A,,Clear,0,2013-08-28 05:51:00
2:51 AM,68.0,66.0,93,29.86,9.0,WNW,3.5,-,N/A,,Clear,300,2013-08-28 06:51:00
3:51 AM,66.9,64.9,93,29.86,10.0,Calm,Calm,-,N/A,,Clear,0,2013-08-28 07:51:00
4:51 AM,64.9,64.0,97,29.86,8.0,Calm,Calm,-,N/A,,Clear,0,2013-08-28 08:51:00
5:51 AM,66.0,64.0,93,29.87,10.0,Calm,Calm,-,N/A,,Partly Cloudy,0,2013-08-28 09:51:00
6:00 AM,66.2,64.4,94,29.88,9.0,Calm,Calm,-,N/A,,Scattered Clouds,0,2013-08-28 10:00:00
6:37 AM,66.2,64.4,94,29.89,7.0,Calm,Calm,-,N/A,,Mostly Cloudy,0,2013-08-28 10:37:00
6:51 AM,66.9,66.0,97,29.89,0.8,Calm,Calm,-,N/A,,Mostly Cloudy,0,2013-08-28 10:51:00
7:18 AM,68.0,66.2,94,29.89,0.5,Calm,Calm,-,N/A,,Scattered Clouds,0,2013-08-28 11:18:00
7:40 AM,68.0,66.2,94,29.89,1.0,NE,3.5,-,N/A,,Scattered Clouds,40,2013-08-28 11:40:00
7:44 AM,68.0,66.2,94,29.89,2.0,NNE,3.5,-,N/A,,Scattered Clouds,30,2013-08-28 11:44:00
7:48 AM,69.8,66.2,88,29.89,3.0,NNE,4.6,-,N/A,,Scattered Clouds,30,2013-08-28 11:48:00
7:51 AM,69.1,66.9,93,29.89,3.0,NNE,4.6,-,N/A,,Scattered Clouds,20,2013-08-28 11:51:00
8:51 AM,71.1,68.0,90,29.89,7.0,NNE,3.5,-,N/A,,Scattered Clouds,30,2013-08-28 12:51:00
8:59 AM,71.6,68.0,88,29.89,6.0,NNE,4.6,-,N/A,,Mostly Cloudy,30,2013-08-28 12:59:00
9:51 AM,72.0,68.0,87,29.90,7.0,NE,3.5,-,N/A,,Overcast,50,2013-08-28 13:51:00
10:35 AM,75.2,69.8,83,29.89,7.0,Calm,Calm,-,N/A,,Scattered Clouds,0,2013-08-28 14:35:00
10:51 AM,77.0,69.1,76,29.89,8.0,Variable,3.5,-,N/A,,Scattered Clouds,0,2013-08-28 14:51:00
11:51 AM,81.0,70.0,69,29.88,10.0,Calm,Calm,-,N/A,,Partly Cloudy,0,2013-08-28 15:51:00
12:51 PM,84.0,68.0,58,29.86,10.0,Calm,Calm,-,N/A,,Partly Cloudy,0,2013-08-28 16:51:00
1:51 PM,84.9,66.9,55,29.85,10.0,Variable,4.6,-,N/A,,Partly Cloudy,0,2013-08-28 17:51:00
2:51 PM,84.9,66.0,53,29.83,10.0,ESE,12.7,17.3,N/A,,Mostly Cloudy,110,2013-08-28 18:51:00
3:51 PM,86.0,66.0,51,29.82,10.0,SE,5.8,-,N/A,,Scattered Clouds,130,2013-08-28 19:51:00
4:51 PM,84.0,66.0,55,29.84,10.0,SSE,17.3,-,N/A,,Scattered Clouds,150,2013-08-28 20:51:00
5:51 PM,78.1,64.0,62,29.84,10.0,South,12.7,18.4,N/A,,Mostly Cloudy,170,2013-08-28 21:51:00
6:51 PM,75.9,64.9,69,29.88,10.0,SW,6.9,-,N/A,,Overcast,220,2013-08-28 22:51:00
7:20 PM,75.2,66.2,73,29.88,10.0,SSW,5.8,-,N/A,,Overcast,200,2013-08-28 23:20:00
7:34 PM,75.2,64.4,69,29.88,10.0,SSW,4.6,-,N/A,,Overcast,200,2013-08-28 23:34:00
7:43 PM,75.2,66.2,73,29.88,10.0,SSW,4.6,-,N/A,,Overcast,200,2013-08-28 23:43:00
7:51 PM,75.9,64.9,69,29.88,10.0,Calm,Calm,-,N/A,,Overcast,0,2013-08-28 23:51:00
8:51 PM,75.0,66.9,76,29.90,10.0,SE,4.6,-,N/A,,Overcast,140,2013-08-29 00:51:00
9:03 PM,73.4,66.2,78,29.90,10.0,ESE,4.6,-,N/A,,Overcast,110,2013-08-29 01:03:00
9:51 PM,73.9,69.1,85,29.91,10.0,SSE,4.6,-,N/A,,Overcast,150,2013-08-29 01:51:00
10:51 PM,73.0,69.1,87,29.91,10.0,North,4.6,-,N/A,,Overcast,350,2013-08-29 02:51:00
11:51 PM,72.0,69.1,91,29.91,10.0,Calm,Calm,-,N/A,,Overcast,0,2013-08-29 03:51:00